Location: Great Snoring
(52.8667°N, 0.8833°E)
Time: 15:21:54
(UTC+00:00)

IRS-1C Rocket - Pass Details

Date: 19 May 2025
Orbit: 798 x 805 km, 98.8° (Epoch: 17 June)

Event Time Altitude Azimuth Distance (km) Brightness Sun altitude
Exits shadow 21:15:28 - 172° (S) 2,545 6.2 -9.6°
Reaches altitude 10° 21:15:53 10° 173° (S) 2,380 6.0 -9.6°
Maximum altitude 21:21:08 69° 256° (WSW) 864 4.4 -10.1°
Drops below altitude 10° 21:26:25 10° 340° (NNW) 2,393 8.0 -10.5°
Sets 21:28:46 0° 343° (NNW) 3,326 8.9 -10.7°
